Theta_e
313 312 311 311 310 311 309 310 307 309 308 312 314 321 325 328 331 334 333 333 334 333 333 334 336 339 340 340 346 352 352 354 354 355 352 356 357 360 355 355 360 363 358 356
310 311 310 308 310 310 310 310 310 309 308 320 323 327 326 327 329 330 329 328 329 329 328 327 329 331 334 335 337 345 347 348 350 353 357 361 362 355 358 358 360 363 360 357
306 310 309 305 309 310 311 311 310 306 314 321 321 323 325 326 327 327 327 328 330 330 330 332 332 332 333 334 336 338 340 342 345 349 349 351 355 358 357 357 360 359 360 360
307 309 299 309 314 312 309 310 314 314 317 320 322 324 325 326 326 328 329 328 328 328 328 330 331 331 333 333 335 336 337 337 339 342 344 349 350 351 354 357 358 356 358 361
302 302 305 306 311 311 310 310 316 315 317 317 319 320 323 328 328 327 327 327 327 327 327 329 329 330 332 332 333 333 335 336 338 338 341 344 345 347 351 353 354 356 359 360
304 299 297 309 313 315 315 305 316 315 316 316 317 312 317 322 322 323 324 325 324 325 326 327 329 329 329 330 331 331 333 334 337 339 339 340 345 348 351 352 350 351 353 358
305 302 306 312 314 315 304 307 315 315 315 315 314 316 320 321 322 323 324 324 326 326 326 327 329 329 328 330 330 334 334 335 338 337 339 341 346 350 349 349 351 350 351 354
307 302 299 314 313 308 314 316 316 317 317 316 317 318 319 321 322 323 324 325 326 326 327 328 330 329 328 328 332 335 334 334 336 338 335 332 344 347 348 349 347 348 349 349
307 308 315 317 315 317 317 316 317 317 318 318 317 318 319 320 322 323 325 326 327 326 327 329 330 330 327 331 332 332 332 331 334 336 335 336 338 338 338 346 340 340 334 337
307 312 313 314 317 318 318 318 319 319 319 319 318 320 320 321 322 323 324 325 326 326 326 327 329 330 330 332 332 330 330 330 331 331 331 334 332 330 330 333 332 333 333 335
308 312 313 314 315 317 318 319 319 319 320 320 321 321 321 321 323 324 325 326 327 326 326 327 329 330 330 332 332 328 329 329 329 329 330 330 332 330 328 335 331 333 333 334
306 314 314 315 318 319 318 317 320 320 320 322 322 322 323 322 324 325 325 326 326 327 326 327 329 330 331 332 332 329 327 327 326 327 327 327 327 328 316 316 313 308 307 320
314 318 316 318 319 320 319 320 321 321 322 322 324 324 324 324 324 323 324 326 326 325 326 328 328 330 331 332 333 330 328 328 327 324 326 326 326 326 325 322 313 308 307 305
318 318 315 317 316 321 322 323 323 324 324 323 323 324 322 322 322 321 321 325 324 322 325 327 326 328 332 333 333 331 329 318 328 328 327 327 328 327 327 326 325 331 313 313
317 318 318 320 322 322 324 324 321 321 321 321 323 321 319 319 320 319 324 324 322 322 323 327 324 326 331 330 330 329 329 328 329 330 327 325 327 327 327 327 326 327 331 316
317 318 320 320 321 322 322 321 318 316 317 317 318 318 319 319 320 320 323 322 320 319 321 322 323 325 328 333 330 330 330 324 324 329 330 328 327 326 326 326 326 327 329 332
316 316 319 320 320 319 319 318 317 316 317 316 317 318 320 319 319 320 322 327 326 325 325 326 325 330 333 333 332 331 330 333 326 329 328 328 327 327 326 326 325 326 329 331
322 323 323 322 319 317 315 316 316 315 314 316 316 316 316 316 316 321 324 329 328 327 328 331 332 334 333 334 334 333 332 329 329 329 330 329 328 329 328 327 327 327 328 329
324 323 323 322 319 317 317 316 315 315 316 317 316 316 317 318 323 328 329 328 327 326 329 332 327 329 333 334 333 335 331 329 329 330 329 324 325 328 328 326 327 329 329 329
323 323 322 321 322 317 316 316 315 315 316 316 317 317 317 319 323 327 328 327 327 328 328 330 330 331 333 335 329 333 330 331 328 327 327 326 325 325 329 318 327 329 330 331
322 321 321 320 317 317 317 316 315 314 316 315 314 313 314 316 319 320 315 315 318 316 319 319 317 316 317 319 322 329 330 328 328 328 334 329 326 326 328 329 329 330 331 332
321 320 321 320 317 316 316 316 316 315 314 313 313 313 313 313 313 315 315 310 314 311 313 312 312 312 312 314 318 322 325 331 333 334 332 331 327 326 328 328 330 330 334 335
322 322 322 320 317 315 316 316 314 313 313 311 311 310 310 313 311 309 308 310 310 311 310 308 308 309 310 312 314 319 320 325 327 329 329 330 330 328 330 333 335 337 336 336
322 322 322 322 322 319 315 316 313 312 312 310 310 311 310 308 311 311 311 309 306 308 309 307 307 308 308 310 316 318 315 316 330 331 330 315 330 330 333 333 331 329 328 325
322 322 322 321 319 317 318 318 313 313 311 311 311 313 313 311 308 309 309 309 306 307 307 307 307 307 307 307 306 308 308 310 308 311 311 311 312 313 314 314 314 317 318 317
320 318 319 319 318 318 315 315 309 310 311 309 310 312 311 311 312 311 313 311 313 311 313 308 306 306 306 305 304 304 305 304 306 306 305 306 305 306 305 304 306 308 307 308
316 308 313 312 313 312 310 310 309 308 309 310 309 311 311 311 310 310 307 310 310 310 311 312 311 307 305 304 303 303 302 303 300 303 303 304 303 302 301 301 301 301 301 301
Wind_Speed
3 6 6 8 9 10 14 14 14 14 14 11 10 9 9 8 4 2 4 8 7 7 6 7 6 6 7 9 9 9 5 2 1 3 7 9 11 14 11 13 12 13 13 13
12 5 9 13 13 13 14 14 15 14 14 7 3 3 4 3 3 0 4 4 5 4 4 4 4 5 6 6 7 7 6 5 4 3 4 6 11 10 13 10 12 12 13 14
13 3 9 13 14 14 14 11 11 13 5 4 1 2 2 2 2 2 2 1 2 3 5 5 7 5 6 8 8 7 7 5 4 3 4 4 4 5 7 9 12 12 13 14
12 7 16 5 5 5 8 7 5 7 2 3 3 3 4 3 5 6 6 6 7 7 9 10 10 10 9 9 8 8 8 9 8 7 6 6 5 4 4 7 9 10 11 14
8 11 11 8 4 3 4 5 2 5 2 0 3 6 11 8 7 8 9 9 10 11 12 11 12 11 11 11 11 10 10 10 10 9 9 9 8 8 6 6 7 10 9 13
5 9 9 9 6 3 2 9 6 3 2 5 6 9 3 3 5 11 14 15 16 17 17 16 15 15 14 14 14 14 14 13 10 10 10 11 10 9 9 8 9 8 10 14
8 8 0 5 2 2 9 6 3 5 6 8 10 11 15 17 16 16 16 17 18 17 17 17 17 16 17 16 16 14 14 14 13 12 12 11 11 10 10 10 10 10 10 11
4 6 12 4 4 7 7 5 6 9 12 13 14 16 17 18 18 19 20 20 19 18 17 17 17 16 18 18 17 15 15 15 14 14 12 11 10 10 11 11 11 11 11 10
5 7 4 2 3 3 6 8 10 11 13 15 17 19 20 19 21 20 21 19 18 18 18 16 16 16 18 16 16 16 17 17 15 15 13 12 11 11 11 12 12 11 11 9
4 6 3 4 6 7 8 10 12 14 17 18 20 21 21 20 19 19 20 19 18 19 18 17 16 16 17 17 15 16 17 16 15 15 14 13 11 11 12 13 12 11 11 10
8 8 6 9 7 8 11 14 17 18 19 20 21 22 21 20 21 20 19 19 18 17 17 19 17 16 17 16 14 14 15 14 15 14 15 13 13 12 12 13 13 11 11 10
7 9 7 10 12 15 16 18 17 19 21 21 22 22 22 20 20 21 20 20 19 19 19 19 18 18 16 16 14 15 15 13 12 13 13 12 12 12 17 17 14 7 9 6
6 9 11 14 14 15 16 20 21 21 21 22 21 21 22 20 16 17 19 21 21 19 20 18 17 18 16 16 14 15 13 15 12 12 12 12 12 13 13 12 19 14 13 13
6 9 12 13 16 18 18 18 20 21 21 20 18 16 16 15 19 17 18 18 17 16 17 21 14 16 16 15 12 13 14 16 14 12 12 12 12 12 13 13 12 12 15 13
9 11 14 16 16 18 18 19 21 21 21 21 20 17 16 17 19 17 19 18 16 17 16 19 13 16 16 12 13 15 15 13 12 12 12 12 13 13 13 14 13 12 10 6
12 14 14 16 17 19 20 21 20 19 17 16 17 17 17 16 17 18 18 15 13 14 13 12 8 13 15 12 13 14 14 15 12 11 11 12 11 13 13 13 13 12 11 9
14 14 16 17 17 18 20 17 15 16 16 16 17 17 18 18 18 16 15 14 13 13 12 13 16 15 14 13 14 11 9 10 11 11 11 12 11 12 13 13 13 12 12 14
11 12 13 14 15 16 17 16 15 16 16 16 15 15 15 16 16 16 12 11 8 9 11 12 13 13 13 13 14 12 10 11 11 11 10 11 12 13 12 13 14 12 12 13
10 11 12 13 13 13 15 15 14 14 15 14 14 14 13 13 14 13 11 11 10 11 10 10 10 10 13 13 12 10 12 12 11 11 9 10 11 12 12 13 13 11 13 14
10 10 12 13 15 14 14 11 13 13 13 14 14 14 14 13 14 15 13 11 12 11 15 15 14 13 15 13 14 10 12 13 11 10 10 11 9 10 11 12 10 11 13 12
9 11 12 13 13 12 11 11 12 13 13 14 13 14 14 14 14 14 14 10 13 16 15 16 11 9 8 12 14 15 15 13 13 13 9 9 11 11 11 10 12 13 13 11
8 10 12 13 13 13 13 12 13 13 13 13 14 14 13 12 13 11 10 11 9 17 9 9 10 21 16 23 10 8 11 14 11 8 6 7 9 9 10 11 10 10 12 11
8 9 10 13 12 11 12 13 13 13 13 14 14 15 13 8 8 10 11 15 11 13 9 10 22 28 27 10 7 8 7 8 7 7 7 7 7 7 7 9 9 8 6 7
6 6 7 9 11 12 15 14 12 12 12 12 12 12 11 10 8 9 9 13 22 16 13 18 23 28 23 14 13 10 10 12 6 4 4 4 1 2 2 2 4 5 4 3
5 5 7 8 8 8 10 10 8 12 11 13 13 12 11 8 8 7 8 9 17 15 13 22 28 26 14 14 15 15 14 13 13 10 10 11 9 9 9 8 9 7 6 7
6 5 5 8 8 7 8 8 9 10 9 11 11 11 12 11 11 11 11 13 14 14 14 12 14 15 15 16 17 16 14 15 13 13 14 10 12 10 10 10 9 9 9 9
5 7 6 7 7 8 8 8 9 11 10 9 10 10 11 12 12 13 14 14 14 15 15 15 15 16 14 14 14 13 13 13 17 13 11 12 11 12 13 10 10 10 10 10
Wind_Direction
304 311 284 285 271 243 257 273 282 309 310 311 340 332 317 311 311 340 60 62 70 61 55 51 28 15 24 20 13 29 24 15 272 264 260 266 258 231 218 224 237 211 205 203
278 244 267 274 268 259 263 267 281 280 283 58 35 322 329 343 307 34 82 72 72 64 49 36 21 358 358 2 8 0 10 37 31 356 325 272 259 249 230 224 230 225 210 210
274 308 282 264 262 259 273 273 289 276 10 85 163 295 340 338 327 326 335 5 332 329 316 327 312 304 320 333 330 335 334 330 330 325 321 313 304 285 264 237 242 231 227 218
270 254 254 26 5 305 283 294 273 268 335 355 345 304 276 284 290 300 310 319 328 317 313 304 313 322 319 313 316 311 310 309 314 304 299 303 307 308 282 271 246 237 242 239
254 244 256 214 155 300 275 256 227 283 206 188 305 296 256 224 276 296 295 291 302 305 303 302 295 294 294 291 293 290 287 293 299 301 296 290 290 298 291 278 260 255 244 234
187 269 274 67 98 349 301 257 63 313 299 316 321 281 70 51 322 301 295 294 298 299 296 290 286 284 280 276 275 273 275 276 274 276 283 284 282 277 278 272 268 257 246 251
224 258 229 74 53 261 241 46 10 340 327 308 296 308 309 300 294 290 288 286 287 284 282 283 284 284 281 276 268 266 266 270 272 261 258 260 268 261 262 264 272 263 257 248
258 277 256 57 183 291 12 319 328 315 306 300 298 299 296 295 293 292 290 289 284 282 280 279 279 278 277 277 279 274 268 263 258 258 256 265 262 252 250 253 255 259 262 260
319 27 58 7 10 347 329 311 311 308 304 300 297 294 296 295 293 290 289 287 283 281 280 274 270 269 274 274 276 277 274 269 258 252 251 254 254 255 248 237 244 255 259 256
312 106 349 328 301 291 287 298 306 302 301 299 294 294 295 296 296 295 293 289 285 286 281 279 277 272 264 266 267 267 265 265 259 250 246 245 252 250 247 246 251 252 251 242
270 262 313 287 314 297 290 301 302 300 300 299 298 294 293 294 293 290 288 286 282 277 277 278 274 270 267 269 268 264 262 261 259 251 248 249 243 253 254 253 257 256 252 257
337 353 319 301 317 315 306 301 299 299 298 297 296 291 290 289 290 290 287 286 285 283 277 274 276 268 265 266 261 256 256 250 252 253 252 250 251 248 221 236 266 242 257 267
318 323 317 306 295 297 307 312 304 302 296 294 293 289 288 298 298 296 291 288 287 284 276 277 276 271 268 265 261 254 249 258 259 255 254 253 253 255 255 232 227 222 227 236
303 309 307 318 313 310 303 307 304 301 297 299 306 321 317 307 301 292 286 285 284 277 271 270 269 271 272 266 262 254 249 248 260 259 256 255 252 252 254 248 249 228 207 217
333 321 311 309 310 317 316 316 315 316 323 319 316 313 301 293 291 289 282 282 277 271 271 269 264 267 270 267 258 254 249 244 247 247 238 244 254 249 248 246 247 247 248 187
319 317 318 323 318 321 323 321 322 308 305 305 302 299 299 297 290 292 282 280 273 267 261 263 265 265 265 259 257 253 247 243 253 258 253 247 236 240 247 248 248 244 241 233
320 323 323 322 326 323 332 324 324 314 309 310 311 307 303 304 296 292 285 289 289 266 269 260 255 262 262 258 253 251 251 254 234 247 247 249 252 245 239 240 241 240 242 243
323 317 321 327 329 338 325 325 320 321 318 309 306 303 302 302 302 297 300 294 302 290 280 281 274 273 265 252 248 252 247 248 254 238 244 252 250 252 251 246 238 237 243 245
336 335 338 334 346 319 336 331 331 327 323 322 316 315 308 304 318 327 334 326 323 316 332 327 317 288 273 269 259 260 258 259 258 253 247 254 258 256 257 247 236 229 237 246
343 346 340 349 344 346 341 343 334 332 336 336 336 337 335 333 339 335 337 359 18 1 335 328 327 311 313 299 285 259 262 253 236 250 255 251 245 240 254 242 243 232 239 243
352 350 351 355 346 349 352 348 338 344 345 349 351 349 345 1 356 23 13 359 350 354 353 358 359 334 315 312 313 296 266 252 257 260 245 234 245 241 237 223 219 226 245 254
2 359 356 4 360 4 359 355 360 356 2 359 358 356 354 6 1 9 24 5 345 355 355 350 346 339 328 321 291 282 274 272 276 280 269 236 238 234 231 227 228 233 241 242
13 11 4 20 17 10 9 14 10 2 8 8 7 3 358 359 7 7 6 0 353 346 359 356 350 342 330 310 275 281 288 267 242 242 235 243 241 231 248 248 238 238 247 255
17 11 20 30 32 28 26 18 14 6 15 9 8 10 9 1 5 14 2 358 5 7 8 3 358 354 3 9 31 37 33 21 344 22 9 334 304 28 32 10 62 58 45 12
22 1 29 21 30 27 31 21 23 30 9 32 19 19 23 24 24 343 0 5 9 13 10 5 6 8 17 22 28 31 31 30 25 31 33 34 30 30 32 29 31 24 34 21
15 19 34 45 29 23 27 28 30 33 23 22 31 24 18 32 21 26 27 20 28 23 28 20 11 16 19 23 28 25 28 27 26 35 33 29 39 35 36 28 26 31 23 20
79 351 43 48 48 49 34 41 38 40 23 25 32 27 25 24 28 25 25 26 27 26 31 32 33 20 22 24 28 28 27 25 31 31 27 36 38 36 32 21 29 34 30 24